Wind_Speed
43 44 44 44 44 45 45 45 46 45 45 46 46 46 46 47 46 46 47 48 48 48 49 49 48 48 48 49 48 48 49 49 48 48 49 49 50 50
43 43 45 45 45 45 45 46 46 45 45 45 46 46 46 47 47 48 48 48 48 49 50 50 49 48 49 49 49 49 49 49 49 49 50 50 50 51
44 44 45 45 45 45 45 45 45 45 44 44 45 46 47 47 48 48 48 50 51 51 50 50 50 49 49 49 49 49 49 49 50 50 50 51 51 51
43 43 44 44 44 45 45 45 45 45 45 45 46 47 47 47 47 48 49 49 50 50 49 49 49 49 49 49 49 50 51 51 51 52 52 52 52 52
42 42 43 43 44 44 44 44 44 45 45 46 47 47 47 47 47 48 49 49 49 49 49 49 50 50 50 51 52 52 52 52 53 53 53 53 54 54
43 43 43 43 44 44 45 46 45 45 45 46 47 47 48 48 49 49 50 50 50 50 51 52 52 52 53 53 54 55 55 54 55 55 55 56 56 56
43 43 44 44 44 45 45 46 47 47 47 47 47 48 49 49 49 50 50 51 52 51 52 52 53 53 54 54 55 55 55 55 55 56 57 57 57 58
41 42 43 43 44 45 46 46 47 48 49 49 48 48 49 49 50 51 52 53 52 53 53 53 54 55 56 56 56 56 57 57 57 57 58 58 58 59
41 41 43 44 45 46 46 46 47 48 49 49 49 49 49 50 51 51 52 53 53 54 55 55 56 56 56 55 55 56 56 56 57 58 58 59 59 59
42 42 43 44 45 46 46 46 46 47 47 48 49 49 50 51 52 52 52 54 55 55 55 55 54 54 54 54 54 55 55 56 56 57 58 58 58 59
42 43 43 44 45 46 46 47 47 47 47 48 49 49 50 52 52 52 52 53 54 53 53 53 52 52 52 53 53 54 55 56 56 57 57 57 58 59
43 43 44 44 45 46 47 48 48 48 49 49 50 51 52 52 52 51 51 51 51 50 50 51 51 52 52 52 53 54 55 55 55 55 57 58 58 59
43 44 44 45 45 46 47 48 49 50 51 51 51 51 51 51 50 49 48 49 49 49 50 51 52 52 52 51 51 52 53 53 53 54 55 56 57 57
43 43 43 44 45 47 48 48 49 50 50 50 50 49 49 49 48 48 48 49 49 49 50 50 51 51 51 50 49 50 51 52 53 54 55 56 56 56
41 42 42 43 44 45 46 47 47 48 48 48 48 48 48 48 48 48 49 49 49 49 49 49 50 50 50 50 49 49 50 51 53 54 55 54 54 55
40 41 42 42 43 43 43 44 45 46 47 48 48 47 47 47 47 47 47 47 48 48 49 50 50 50 50 49 49 49 50 51 52 53 54 53 53 53
40 40 41 41 41 41 42 43 44 45 45 46 46 45 45 46 45 46 46 47 48 48 48 48 49 49 49 50 50 49 49 50 51 51 51 51 50 50
38 38 39 39 40 40 41 41 42 42 42 43 42 42 42 42 43 44 45 46 46 47 47 46 47 47 48 49 49 49 49 49 49 48 47 47 46 46
37 37 37 38 38 39 40 40 40 40 40 40 39 39 40 40 41 42 42 43 43 44 44 44 45 46 47 48 48 49 48 46 45 44 43 43 42 41
36 36 36 37 37 38 38 38 39 39 38 39 39 39 39 40 40 41 41 41 41 41 41 42 43 44 45 45 45 45 45 44 42 40 39 38 38 37
35 35 36 36 36 36 36 36 37 37 38 38 38 38 38 37 38 38 39 39 39 39 39 40 40 41 41 42 41 40 40 41 39 38 37 36 35 35
35 35 36 36 36 35 35 35 35 36 36 37 37 37 36 36 37 37 37 37 37 37 37 38 38 38 38 38 37 36 36 36 36 37 37 35 34 33
35 35 36 36 36 35 35 36 36 35 35 35 35 34 34 34 35 35 35 35 35 35 36 36 36 36 36 35 34 34 33 33 34 34 35 35 34 34
Wind_Direction
259 258 258 259 259 259 258 259 259 259 258 258 259 259 259 260 260 260 262 263 265 265 267 268 269 271 272 273 275 274 275 276 277 278 279 280 281 281
261 261 260 260 260 260 260 260 260 260 260 259 260 260 260 261 261 261 262 263 264 266 267 268 269 271 272 273 275 275 276 276 277 278 279 280 281 281
262 261 261 260 259 261 261 261 262 261 261 261 261 260 260 260 261 262 262 263 264 266 267 268 269 272 272 273 274 276 276 277 277 278 279 280 280 281
263 262 262 261 261 263 262 262 262 261 262 262 262 262 262 262 263 263 263 264 265 266 267 268 270 271 272 274 275 276 276 277 278 279 279 280 280 281
262 263 262 261 262 263 263 263 263 263 263 263 263 263 263 262 263 263 263 264 265 266 268 269 271 272 274 274 275 276 276 277 278 279 280 280 281 281
262 263 262 263 263 263 263 263 263 264 265 265 264 264 264 265 264 264 264 265 266 267 269 272 273 274 274 275 276 276 277 277 278 279 279 280 281 282
264 264 264 264 264 264 263 263 264 265 266 266 265 265 265 265 265 265 265 265 266 268 271 273 274 275 276 277 277 276 277 278 278 279 280 281 281 282
265 265 265 265 266 265 265 265 266 266 267 268 267 266 265 265 265 266 266 267 268 269 271 272 274 275 275 276 276 277 278 278 279 279 281 281 281 282
266 266 267 267 267 266 266 267 267 267 268 268 269 269 268 267 267 267 268 268 269 270 271 273 275 275 275 275 276 277 278 279 280 281 282 282 282 282
266 267 267 267 266 266 267 267 268 268 268 268 269 269 269 269 270 269 270 270 271 271 271 273 274 274 275 275 276 277 278 279 280 280 281 282 283 283
267 267 268 267 266 266 266 266 267 267 268 268 269 269 269 270 271 271 271 272 272 272 273 273 273 274 275 276 277 277 278 279 280 280 281 282 283 284
268 268 268 269 267 266 266 267 268 268 268 268 269 270 271 271 271 271 272 272 273 273 272 273 274 276 276 277 277 278 278 279 280 281 282 284 285 285
270 270 270 270 269 268 268 268 268 268 269 269 269 269 270 270 270 270 271 273 274 274 274 274 275 276 277 277 277 277 278 279 281 283 284 285 286 286
272 271 270 269 269 270 270 270 270 270 270 270 269 270 270 270 269 269 271 273 274 275 276 276 276 276 277 278 278 278 279 281 282 283 285 285 286 286
272 271 270 270 271 270 270 270 270 270 270 270 270 270 270 269 268 269 271 272 274 275 276 276 277 277 278 279 279 280 281 282 283 284 285 286 286 286
273 272 271 271 271 271 270 270 270 271 270 271 270 270 269 268 268 270 271 272 274 275 277 278 278 278 278 279 281 282 283 283 284 284 285 285 285 286
274 273 273 272 272 271 271 272 272 273 272 272 272 271 269 269 270 271 272 274 275 276 277 277 277 277 278 279 281 283 284 285 285 286 285 285 286 286
274 273 273 273 273 272 272 272 274 274 274 273 273 271 270 270 272 274 275 276 277 277 277 277 277 278 279 280 282 284 284 285 286 286 286 286 286 287
273 274 274 274 274 273 273 273 274 274 274 274 272 272 271 272 274 276 277 278 278 278 278 278 279 280 281 281 282 283 285 285 285 285 285 286 286 287
275 275 275 276 276 276 276 275 275 274 274 274 272 272 272 274 275 276 277 278 279 279 279 280 281 282 283 283 283 283 283 284 285 285 285 285 287 287
277 277 277 277 277 277 276 276 275 275 274 274 274 273 274 275 276 276 277 278 278 279 280 281 282 283 284 285 285 284 284 284 284 285 286 286 287 288
276 277 277 276 276 276 276 275 275 276 276 275 274 274 275 277 277 278 278 278 279 280 282 283 283 283 284 285 285 285 285 285 285 286 287 288 289 289
277 277 277 277 276 275 275 275 275 275 276 276 275 275 276 278 279 279 278 279 280 281 282 284 285 285 286 286 285 285 286 286 286 286 287 289 290 291
Height
5686 5687 5689 5690 5691 5692 5694 5696 5698 5700 5702 5704 5705 5706 5707 5708 5710 5711 5713 5714 5715 5715 5716 5716 5716 5716 5716 5716 5716 5715 5715 5714 5713 5712 5712 5711 5710 5708
5674 5675 5677 5678 5679 5680 5682 5683 5685 5687 5689 5692 5693 5694 5695 5696 5698 5699 5700 5701 5702 5703 5703 5703 5703 5703 5703 5703 5703 5702 5702 5701 5700 5699 5698 5698 5696 5695
5663 5664 5665 5665 5667 5668 5669 5671 5673 5675 5677 5679 5680 5682 5683 5684 5685 5686 5688 5689 5690 5690 5691 5691 5691 5690 5690 5690 5689 5689 5688 5687 5687 5686 5685 5684 5682 5681
5651 5652 5653 5654 5655 5656 5658 5659 5660 5662 5664 5666 5667 5668 5670 5671 5672 5673 5675 5676 5677 5677 5678 5678 5677 5678 5677 5677 5676 5676 5675 5674 5673 5672 5671 5670 5669 5667
5640 5641 5642 5643 5644 5645 5645 5647 5648 5649 5650 5652 5654 5655 5657 5658 5659 5660 5661 5662 5663 5664 5664 5664 5664 5664 5664 5663 5662 5661 5660 5660 5659 5658 5656 5655 5653 5652
5629 5629 5630 5631 5632 5633 5634 5635 5636 5637 5637 5638 5640 5641 5643 5644 5645 5646 5648 5649 5649 5650 5650 5651 5650 5650 5649 5649 5648 5647 5646 5645 5644 5643 5641 5640 5638 5636
5617 5618 5619 5619 5620 5620 5621 5622 5623 5624 5625 5625 5627 5628 5629 5630 5631 5632 5633 5634 5635 5636 5636 5636 5636 5635 5634 5633 5632 5631 5630 5629 5628 5627 5625 5624 5622 5620
5605 5606 5607 5608 5608 5608 5609 5610 5610 5611 5612 5613 5614 5614 5615 5616 5616 5617 5618 5619 5621 5622 5621 5622 5620 5620 5618 5617 5616 5614 5613 5612 5611 5610 5608 5607 5605 5603
5594 5594 5595 5596 5596 5597 5597 5597 5597 5598 5599 5599 5600 5601 5601 5601 5602 5602 5603 5604 5605 5605 5605 5606 5604 5604 5602 5601 5599 5598 5597 5595 5594 5593 5591 5589 5587 5585
5582 5582 5583 5583 5584 5584 5584 5584 5585 5585 5585 5586 5587 5587 5587 5586 5587 5587 5587 5588 5589 5589 5588 5589 5589 5588 5586 5585 5584 5582 5581 5579 5578 5576 5573 5571 5569 5567
5570 5570 5570 5570 5570 5571 5571 5571 5572 5572 5571 5572 5572 5573 5572 5572 5572 5572 5572 5572 5573 5574 5573 5573 5573 5572 5571 5571 5568 5566 5565 5563 5561 5559 5557 5554 5552 5549
5558 5557 5557 5557 5557 5557 5557 5558 5558 5559 5558 5558 5559 5559 5558 5558 5557 5557 5557 5557 5557 5559 5558 5557 5557 5556 5556 5556 5554 5551 5549 5547 5545 5543 5540 5538 5535 5532
5545 5545 5544 5544 5543 5543 5543 5544 5544 5544 5544 5544 5544 5544 5544 5543 5543 5543 5543 5543 5543 5544 5543 5542 5542 5540 5540 5540 5539 5536 5533 5531 5529 5527 5524 5521 5518 5514
5532 5531 5531 5531 5530 5530 5530 5529 5529 5529 5529 5529 5529 5529 5529 5529 5529 5529 5529 5529 5528 5528 5527 5526 5526 5525 5524 5523 5523 5521 5519 5516 5514 5511 5508 5505 5502 5498
5519 5518 5518 5517 5517 5516 5516 5516 5515 5515 5515 5515 5515 5515 5515 5514 5515 5515 5515 5514 5514 5513 5512 5511 5511 5510 5508 5508 5507 5505 5504 5501 5498 5495 5493 5489 5486 5482
5506 5506 5505 5504 5504 5504 5503 5502 5502 5502 5501 5501 5500 5500 5500 5500 5500 5500 5500 5500 5500 5499 5498 5496 5495 5494 5493 5492 5491 5490 5487 5486 5483 5479 5477 5474 5470 5466
5494 5494 5493 5492 5492 5491 5490 5490 5489 5488 5487 5486 5486 5486 5486 5486 5486 5486 5486 5485 5485 5484 5483 5482 5480 5479 5478 5477 5476 5474 5472 5469 5467 5464 5461 5459 5455 5451
5482 5482 5481 5480 5480 5479 5478 5478 5477 5476 5474 5473 5473 5473 5473 5473 5473 5472 5472 5471 5470 5470 5468 5467 5466 5465 5464 5463 5461 5458 5456 5454 5452 5449 5445 5443 5441 5437
5471 5470 5470 5469 5468 5467 5466 5465 5465 5463 5462 5462 5461 5461 5461 5460 5460 5460 5459 5458 5457 5456 5455 5453 5452 5451 5450 5449 5447 5443 5441 5439 5437 5434 5432 5429 5428 5424
5460 5459 5458 5457 5457 5455 5454 5453 5453 5452 5451 5450 5450 5449 5449 5448 5448 5447 5446 5445 5444 5443 5442 5440 5438 5437 5435 5435 5433 5430 5426 5424 5423 5421 5419 5417 5415 5412
5449 5448 5447 5446 5445 5444 5443 5442 5441 5440 5439 5439 5438 5437 5437 5436 5436 5435 5434 5433 5432 5431 5430 5428 5426 5424 5422 5420 5419 5418 5414 5411 5410 5408 5407 5405 5403 5401
5438 5437 5436 5435 5434 5433 5432 5431 5430 5429 5428 5427 5427 5426 5426 5425 5425 5424 5423 5422 5421 5419 5418 5416 5414 5412 5410 5408 5407 5405 5404 5401 5398 5396 5394 5393 5391 5390
5427 5426 5425 5423 5422 5421 5420 5420 5419 5418 5417 5417 5416 5416 5415 5414 5413 5412 5411 5411 5410 5408 5407 5405 5403 5401 5399 5397 5396 5394 5393 5391 5389 5387 5385 5382 5380 5378